Location: Casilda
(33.0440°S, 61.1680°W)
Time: 16:56:24
(UTC-03:00)

ISS - Pass Details

Date: 28 November 2021
Orbit: 417 x 423 km, 51.6° (Epoch: 28 November)

Event Time Altitude Azimuth Distance (km) Brightness Sun altitude
Exits shadow 03:42:17 49° 186° (S) 556 -3.0 -22.2°
Drops below altitude 10° 03:45:10 10° 143° (SE) 1,519 0.2 -21.8°
Sets 03:47:19 0° 138° (SE) 2,389 1.6 -21.5°
